GFSGL_925_spd_273.txt.gz
Wind_Speed
22 19 17 14 13 12 10 9 8 7 7 6 4 2 1 1 2 2 1 1 3 3 6 6 6 8 9 12 13 16 16 20 15 23 21 20 19 17 15 15 17 15 19
23 20 18 16 14 13 12 10 10 8 6 5 4 3 1 0 3 4 4 3 5 7 8 9 11 13 13 16 13 15 18 17 16 19 19 21 19 15 12 11 18 17 17
24 22 20 18 16 15 13 11 9 8 7 5 4 4 3 2 4 4 5 7 8 9 11 13 15 16 14 17 17 18 22 18 22 21 20 20 17 20 10 15 14 13 15
25 23 21 20 18 16 13 11 10 9 8 7 6 5 5 6 5 6 6 8 10 12 14 16 19 18 17 21 19 18 21 21 23 23 23 22 13 16 16 12 18 19 22
25 23 22 19 17 16 14 12 11 9 8 8 7 6 6 7 9 8 7 9 13 17 20 18 21 14 16 16 17 16 16 18 21 22 22 22 21 21 21 19 20 22 23
25 23 22 20 18 16 14 13 10 10 8 8 8 7 7 9 2 7 12 13 16 19 21 18 17 21 7 16 5 11 17 17 18 19 18 18 20 20 19 20 22 19 15
27 26 23 20 18 17 15 13 12 10 8 8 7 8 9 9 10 12 13 14 18 22 23 18 14 15 14 12 15 17 21 20 16 13 16 17 19 21 21 20 18 19 18
26 25 23 21 19 17 15 14 11 9 8 8 8 8 9 10 11 14 15 16 18 22 22 14 8 11 8 10 12 19 21 19 9 11 14 17 17 17 16 16 16 17 18
24 24 23 22 20 18 16 13 12 9 8 8 7 8 9 10 11 13 16 16 19 21 12 9 5 8 9 11 13 19 20 14 16 18 17 14 14 15 14 13 14 13 15
27 24 23 22 20 17 15 14 11 9 7 8 8 9 11 12 13 14 13 17 16 11 11 6 3 4 9 13 13 16 18 17 20 16 15 11 12 13 14 12 15 14 11
24 24 23 21 18 16 14 11 11 9 7 7 8 9 12 12 12 8 9 6 11 13 15 5 6 12 14 13 13 11 14 18 14 13 13 13 15 13 12 14 13 13 15
26 25 23 20 17 16 14 11 10 9 7 9 11 11 10 8 9 3 6 6 8 12 12 10 13 14 10 10 11 13 13 13 14 14 12 14 16 16 15 14 16 15 16
28 26 22 19 17 16 14 12 11 9 11 13 11 5 7 5 4 4 2 3 3 9 6 11 9 5 7 6 12 11 15 14 14 15 15 16 15 17 18 16 18 17 15
27 25 22 20 18 15 14 13 13 13 12 4 6 8 13 1 3 5 6 7 7 13 10 15 8 4 6 5 9 13 9 10 15 16 17 18 18 17 16 15 17 17 16
25 24 22 20 17 16 11 9 4 8 4 3 7 8 7 8 6 6 8 10 11 10 10 14 9 4 10 11 12 12 13 10 13 15 18 19 19 19 19 19 20 18 15
25 24 22 20 18 17 14 8 4 4 3 3 4 5 8 8 6 6 8 4 7 7 12 11 10 10 14 15 16 17 12 14 14 25 17 17 17 17 19 22 20 16 16
23 22 20 18 17 17 15 15 10 7 7 8 7 8 7 5 7 8 6 5 8 11 14 11 13 9 10 13 16 15 15 15 24 13 14 16 16 17 19 19 21 24 23
21 21 20 18 18 17 15 19 15 15 10 9 7 6 4 5 5 7 4 12 16 15 12 12 14 8 7 13 13 16 16 15 18 16 19 20 20 18 19 20 19 22 23
23 21 19 18 17 15 14 15 16 11 14 11 8 8 7 2 4 6 7 13 11 10 11 13 14 10 9 11 10 15 13 16 18 18 21 22 22 22 21 22 20 25 27
21 20 19 18 16 13 12 9 11 10 7 7 10 2 3 8 10 7 6 8 10 11 12 13 13 13 9 9 13 13 14 16 17 17 18 21 24 24 22 24 24 25 23
22 21 17 16 15 13 11 12 7 5 4 4 8 7 4 5 8 8 9 10 11 12 12 12 14 15 13 11 12 13 16 17 18 19 21 23 23 23 24 24 25 24 24
22 22 19 17 15 13 11 11 8 7 4 3 5 4 2 7 8 9 10 10 11 11 12 12 13 14 16 17 18 17 17 18 19 21 23 24 23 24 24 24 24 24 21
23 20 17 15 14 17 10 10 8 5 4 2 3 3 4 7 7 8 9 10 11 12 12 12 13 14 16 16 16 17 19 20 21 23 23 24 25 24 25 25 22 22 20
21 17 15 18 13 12 12 9 8 7 4 4 4 4 5 6 7 8 9 10 11 11 11 12 13 14 16 17 16 16 20 24 23 20 22 24 24 25 22 23 23 22 23
19 17 16 16 14 14 11 8 7 7 6 5 4 4 5 7 8 9 9 10 10 11 12 13 13 16 17 16 15 22 24 26 28 27 23 23 21 20 22 23 23 24 22
18 18 16 15 13 11 10 9 8 8 7 5 5 5 6 8 8 8 10 10 11 12 13 14 14 17 16 15 23 29 29 29 27 26 27 16 17 22 22 22 21 20 18

GFSGL_925_spd_276.txt.gz
Wind_Speed
24 22 22 19 17 14 12 11 11 8 7 7 7 4 4 2 3 2 1 3 2 1 6 5 7 10 6 11 13 16 12 14 13 18 20 26 25 22 20 20 13 15 16
23 23 23 20 19 17 15 13 11 10 9 8 7 4 2 2 4 5 6 3 3 5 8 8 11 12 11 15 15 18 16 18 14 16 22 28 19 18 19 13 11 12 14
24 23 22 21 19 18 16 15 13 12 9 8 7 6 5 4 5 5 6 6 7 8 11 13 14 17 13 23 20 18 17 17 18 21 22 21 24 9 10 14 12 16 15
24 22 21 21 19 18 17 15 14 12 12 10 7 7 6 6 7 7 8 8 8 11 13 16 18 18 17 18 19 19 14 18 18 18 20 19 19 17 15 16 17 16 18
25 23 23 22 20 18 17 16 14 13 10 11 9 9 7 7 10 14 8 7 11 15 17 19 20 21 17 10 15 10 13 16 17 18 17 17 15 19 15 15 16 19 16
23 22 22 22 21 19 17 15 14 11 9 9 9 8 8 9 4 5 8 11 15 17 20 19 20 22 4 5 3 8 12 20 23 21 16 13 14 16 15 14 16 14 8
22 20 21 20 18 18 16 15 13 12 10 9 8 8 8 9 11 9 11 14 16 20 23 21 18 12 5 4 7 11 15 19 19 8 10 12 15 14 14 15 14 14 15
24 23 23 21 19 18 17 15 14 12 11 10 9 9 9 9 12 13 13 15 17 21 23 19 11 5 3 8 12 15 17 19 12 10 12 15 14 16 14 12 16 17 15
26 25 24 23 21 20 18 16 14 12 11 10 10 9 8 10 12 12 12 13 18 21 25 6 3 5 9 14 16 14 16 15 15 17 16 14 15 14 13 13 15 13 13
26 28 25 23 21 21 19 17 16 13 12 10 12 10 10 11 11 8 11 13 13 15 6 5 7 13 14 12 13 13 15 17 22 17 19 16 11 13 13 13 15 14 12
25 24 24 24 22 21 18 17 15 14 11 12 10 9 11 10 6 9 10 4 7 10 15 6 4 12 10 11 10 10 13 15 18 16 19 18 14 15 16 15 15 15 17
25 26 23 22 19 19 19 17 14 12 9 10 12 15 10 8 3 2 3 4 4 7 11 1 6 10 10 10 7 12 15 14 14 17 14 16 15 18 19 20 21 20 20
27 27 26 24 19 22 18 15 11 11 13 16 12 7 7 6 2 3 4 5 8 8 12 11 16 9 8 8 9 12 11 10 14 16 15 18 19 20 22 21 19 18 19
27 28 25 24 21 20 17 14 15 16 18 17 1 2 2 4 6 4 5 7 10 10 12 15 11 2 7 11 8 14 13 13 13 13 19 19 20 22 22 21 20 24 22
26 27 26 21 21 17 13 14 10 6 6 11 10 6 10 9 8 8 11 10 8 9 13 16 7 4 6 11 13 16 14 14 12 15 19 17 20 19 22 22 23 21 18
27 27 24 22 20 18 17 15 11 9 7 8 10 9 13 10 7 9 8 1 3 8 16 17 16 2 11 11 14 15 14 13 18 19 14 18 19 20 22 23 22 18 19
25 25 26 22 22 21 20 16 13 10 8 9 9 10 8 9 10 8 2 5 9 12 14 18 13 7 6 8 12 14 17 17 18 17 19 20 22 20 20 21 19 19 19
25 28 27 22 21 20 19 18 16 12 10 9 8 6 7 7 5 4 3 10 16 14 13 12 14 7 4 7 8 8 15 14 19 20 20 20 22 23 22 21 19 19 20
26 27 25 21 20 22 21 19 18 16 15 15 7 7 5 3 6 8 8 13 15 12 13 14 15 17 7 7 7 8 10 14 19 21 21 19 20 22 22 22 22 24 23
26 24 21 20 19 18 19 19 16 15 13 15 9 12 3 10 13 13 10 7 11 14 14 14 15 17 13 9 9 9 11 16 17 17 17 19 21 22 22 22 22 23 21
25 26 20 20 17 16 22 22 18 20 10 15 15 11 6 4 9 10 12 13 14 14 14 13 15 16 17 18 20 18 17 17 16 18 20 22 23 23 23 24 23 23 21
23 21 17 16 16 12 17 15 11 12 8 8 14 9 5 3 8 10 11 11 12 13 13 13 14 16 16 18 18 19 16 19 21 23 23 23 23 23 24 23 24 23 20
25 21 18 18 13 22 16 13 13 7 8 9 7 6 5 9 9 11 10 11 11 11 11 12 13 15 17 17 16 16 19 22 27 26 24 24 24 23 22 24 23 23 19
24 23 17 22 18 16 18 15 13 12 9 10 8 6 6 8 9 10 10 10 10 11 12 13 13 14 16 13 12 19 20 27 27 27 24 26 22 23 23 23 25 18 19
21 17 24 19 20 20 16 12 13 11 11 10 9 8 8 10 10 9 10 10 11 12 13 13 13 15 15 14 19 27 26 28 28 25 26 24 18 17 23 23 18 17 13
18 24 22 23 21 15 16 16 13 12 10 10 9 8 10 10 9 10 10 10 11 12 13 14 14 16 12 16 25 24 27 29 29 26 22 16 18 23 20 18 17 10 14

GFSGL_925_spd_279.txt.gz
Wind_Speed
23 24 23 19 18 24 18 15 15 14 15 12 10 8 7 5 5 3 5 6 7 6 5 5 6 8 5 7 11 14 15 17 8 19 21 24 26 27 22 19 14 10 11
28 25 24 19 21 18 16 13 13 12 11 11 11 8 8 5 7 5 6 4 3 4 6 8 11 13 9 15 17 18 19 18 10 16 23 20 22 15 14 12 7 8 13
30 28 26 23 22 19 18 15 13 11 12 12 10 8 6 8 6 7 6 5 5 8 10 13 14 15 19 17 19 17 18 17 14 18 19 21 16 12 14 12 13 16 13
32 30 29 27 25 22 20 17 15 15 13 10 11 10 8 10 7 9 9 10 10 10 11 14 17 18 17 14 21 15 14 11 14 16 19 20 12 15 10 11 16 16 15
33 33 32 28 25 23 20 19 17 17 17 14 11 10 10 9 9 12 12 9 10 14 17 18 18 18 21 14 12 14 9 12 15 19 20 17 10 13 11 13 17 18 18
33 34 31 28 26 25 22 21 19 17 14 11 12 10 11 11 10 12 9 11 13 14 18 21 19 17 14 6 4 3 8 13 16 17 14 6 9 11 11 13 14 13 5
32 32 31 29 27 26 25 23 21 17 13 10 7 8 9 10 11 8 8 10 14 17 20 22 23 15 8 2 3 9 15 16 17 12 10 8 12 13 10 14 12 13 17
29 30 33 30 28 25 22 22 20 17 14 11 10 8 6 8 7 10 13 14 15 18 22 22 7 3 3 7 12 14 13 13 9 13 12 14 12 14 13 13 13 17 19
29 29 32 34 32 29 26 23 21 17 15 12 9 8 9 8 10 13 14 12 14 12 11 7 5 7 6 8 11 13 14 14 15 14 10 13 15 12 14 14 14 16 13
28 34 34 33 31 30 27 24 21 18 15 12 10 10 12 11 13 12 9 9 6 7 4 4 5 7 6 9 11 11 14 16 19 17 17 17 15 12 12 13 16 17 15
36 35 36 34 27 28 26 23 21 17 13 12 13 9 16 14 14 10 6 4 3 6 8 8 2 4 6 9 9 10 15 16 14 17 17 15 15 14 17 16 17 18 19
33 30 32 33 28 27 27 25 21 16 12 8 11 10 7 9 9 4 3 3 4 7 9 3 6 5 2 7 10 11 11 11 11 18 17 18 19 18 19 18 16 13 17
34 33 36 31 26 28 28 24 18 14 12 11 12 13 12 8 7 5 2 4 7 11 11 11 12 11 3 7 14 13 13 10 16 15 18 23 20 17 20 21 21 18 21
24 26 30 24 26 28 24 21 17 14 13 13 9 11 9 9 7 5 1 6 8 7 7 6 7 2 3 6 6 9 8 10 8 15 18 19 17 19 22 23 24 25 25
24 26 29 24 24 22 20 16 13 8 11 12 12 16 20 13 5 3 5 3 3 7 12 11 10 8 1 2 7 9 9 12 10 19 18 20 22 23 23 22 26 24 20
28 26 26 29 19 21 20 17 12 10 10 10 9 9 13 7 4 3 1 1 4 10 14 15 18 9 7 2 8 11 13 13 13 17 18 20 21 21 23 25 25 22 21
26 31 34 31 26 24 25 24 20 13 13 13 11 11 11 12 9 6 2 3 7 11 15 16 13 6 5 0 4 9 11 10 12 16 17 20 20 22 23 24 24 22 23
31 31 29 24 26 28 25 23 21 21 19 15 11 9 8 5 3 0 4 8 14 20 8 7 9 3 4 2 4 6 8 12 14 17 18 19 19 21 23 23 22 21 23
31 30 30 26 26 29 25 24 21 19 17 15 12 9 6 3 6 7 10 13 14 13 9 13 14 17 10 6 5 6 10 14 16 19 18 16 20 21 24 23 23 24 25
33 32 28 27 30 28 26 26 21 21 18 15 9 6 8 7 10 11 8 6 6 11 13 13 14 16 14 15 15 16 20 14 14 17 24 27 27 24 23 24 24 22 22
32 30 29 26 30 28 23 26 23 23 20 21 13 9 8 4 6 13 14 14 14 14 13 13 14 13 15 18 19 17 12 19 24 29 31 30 27 24 24 23 22 20 22
32 32 29 26 23 21 28 29 26 21 27 22 15 12 8 9 13 13 13 11 12 12 11 12 13 13 17 14 13 13 19 25 29 29 29 28 25 23 23 21 22 22 21
27 24 23 20 21 30 29 28 23 18 25 20 15 11 13 15 14 13 11 11 11 12 12 13 12 14 12 10 13 20 23 24 26 27 27 27 27 24 20 22 21 21 19
26 24 17 27 29 30 29 24 24 24 25 22 20 18 17 15 14 12 11 10 12 13 13 13 12 11 9 13 19 23 22 25 26 27 25 25 22 18 17 21 23 23 13
23 23 29 33 32 32 26 27 29 27 24 22 22 20 17 14 12 11 12 11 12 14 14 14 14 13 15 18 22 25 26 27 27 27 24 18 18 20 22 23 16 9 9
25 30 33 33 29 32 32 29 27 26 24 21 18 17 14 14 11 10 12 11 11 14 14 14 15 18 19 20 25 30 29 27 25 25 20 17 19 21 22 13 10 14 12

GFSGL_925_spd_282.txt.gz
Wind_Speed
27 24 21 23 24 21 19 17 19 21 21 17 14 9 7 6 6 7 9 9 9 10 8 6 6 8 8 8 9 10 10 10 6 17 16 19 18 13 12 10 6 5 7
27 24 22 21 21 22 23 20 19 18 20 17 12 11 8 10 9 8 9 10 10 7 6 8 11 12 11 11 13 15 17 15 11 11 17 17 15 12 11 11 9 9 13
27 25 24 23 23 25 22 20 21 18 17 15 13 12 8 11 10 9 9 7 7 9 10 12 14 13 15 15 15 16 19 13 12 11 15 18 19 11 10 11 12 16 16
28 28 28 25 26 23 20 19 18 15 15 14 12 13 11 10 12 8 11 11 13 14 14 14 16 18 18 17 20 17 15 12 10 12 17 18 16 8 7 12 15 17 17
30 32 29 26 25 21 20 22 18 16 14 16 15 14 13 13 15 12 14 16 16 14 16 17 18 17 16 17 10 11 6 8 12 15 15 15 10 8 10 11 13 17 15
31 33 31 27 26 24 23 21 18 17 17 17 18 15 13 13 14 13 16 17 15 16 16 18 19 20 19 8 1 2 8 11 13 13 14 6 7 10 12 11 12 9 5
33 33 30 31 30 28 24 22 21 17 18 17 15 14 14 14 14 13 11 11 13 13 15 20 19 15 3 1 5 10 11 9 5 9 10 9 11 11 12 12 12 11 12
32 31 30 32 33 30 28 26 24 23 22 18 13 11 12 10 9 12 13 15 15 14 14 12 10 3 4 4 7 10 10 10 10 12 10 10 11 12 13 13 14 16 16
30 29 30 34 34 34 31 28 27 27 23 17 16 12 12 11 11 13 14 16 11 9 8 7 2 3 3 5 8 8 11 12 13 11 10 10 9 10 12 13 15 14 10
30 30 33 35 33 32 34 34 30 29 21 17 16 11 11 14 14 14 13 10 8 4 3 1 4 1 1 4 6 9 13 15 13 15 18 11 10 10 10 14 13 15 12
30 32 32 34 35 29 31 32 30 26 22 18 16 13 13 15 16 13 11 9 5 2 1 5 8 4 6 5 7 10 11 13 15 12 14 11 15 13 10 12 11 11 10
30 29 29 35 28 29 30 28 28 21 22 16 14 13 10 10 10 9 9 5 4 6 7 3 5 10 11 7 7 10 12 14 12 14 16 17 18 13 14 15 14 15 14
29 30 31 32 32 35 28 19 23 22 21 16 12 11 11 10 10 7 6 4 7 9 8 8 9 10 9 6 7 10 12 9 9 12 14 15 14 15 16 17 17 20 17
26 24 18 17 15 15 24 25 28 25 18 15 12 10 10 10 9 8 6 5 5 4 4 3 8 4 5 5 4 9 7 8 7 11 12 13 15 16 19 20 21 23 19
20 20 23 25 26 23 24 26 25 20 16 15 15 13 15 12 9 6 4 1 1 4 8 5 9 8 8 6 5 6 6 9 7 8 11 14 17 18 20 20 20 21 19
19 22 24 25 28 29 26 22 18 13 10 10 10 11 11 9 6 3 5 2 4 9 13 10 13 4 13 11 9 6 5 8 10 11 13 15 16 17 19 20 22 21 18
21 24 26 28 30 31 29 26 20 14 14 14 15 14 12 13 10 8 4 1 4 9 6 6 7 6 12 13 10 10 8 10 11 13 17 17 17 18 20 22 22 19 18
25 26 26 27 29 32 30 28 26 26 25 21 16 15 12 9 6 2 3 8 11 10 7 6 7 6 10 11 10 12 12 14 15 14 12 15 20 22 23 21 19 19 20
21 23 28 32 30 33 31 31 28 26 26 23 18 13 9 5 1 5 7 6 4 4 5 7 8 9 10 7 8 8 8 7 9 16 21 24 24 21 23 21 20 20 19
26 34 30 29 31 26 24 26 23 22 22 21 17 12 8 3 7 13 11 9 7 6 5 5 6 6 8 8 9 7 7 13 19 23 25 25 25 22 21 21 21 20 19
25 32 35 29 24 23 25 27 25 25 22 18 13 7 6 9 13 12 10 8 7 5 5 6 5 7 7 8 8 10 15 19 21 22 25 27 26 24 21 19 19 16 16
31 33 34 22 24 23 26 26 27 27 23 20 16 15 14 16 14 11 8 7 7 7 6 6 5 7 7 8 12 16 19 20 22 24 25 26 25 22 18 16 15 16 16
32 33 30 22 26 27 27 28 26 25 25 20 17 18 18 15 13 10 9 8 7 7 7 6 6 7 6 11 15 18 21 23 24 23 24 25 22 17 16 18 18 17 15
34 27 24 20 27 27 28 29 25 28 24 19 20 20 18 15 13 10 8 7 8 8 8 8 9 8 10 14 18 22 24 24 22 21 21 21 17 16 16 17 17 17 16
30 21 26 29 30 32 32 31 29 29 27 26 23 21 18 15 13 10 8 7 8 9 9 10 10 12 15 18 22 26 25 23 22 21 20 17 15 15 15 16 17 12 13
15 26 29 32 34 34 34 34 35 34 31 26 23 19 16 13 11 9 8 6 7 7 8 10 13 15 17 20 24 25 25 23 22 20 17 14 14 15 15 15 13 9 8

GFSGL_925_spd_285.txt.gz
Wind_Speed
29 27 26 24 25 26 24 21 22 21 22 19 17 15 10 6 8 8 6 7 7 6 9 10 9 9 12 13 14 16 16 11 8 17 15 15 16 16 16 13 11 8 6
29 26 22 24 26 27 22 18 17 20 23 20 17 13 10 9 8 8 7 7 8 10 8 8 10 11 15 15 17 19 20 15 13 14 17 16 17 19 16 12 12 12 14
28 27 26 24 26 26 22 19 19 20 22 18 16 14 12 11 11 10 9 7 7 8 10 11 13 15 18 19 19 20 20 16 13 14 12 16 19 19 15 12 12 16 16
27 26 27 27 28 27 24 21 20 20 21 19 16 13 13 11 12 10 8 8 10 12 13 16 16 18 19 19 21 21 13 11 10 11 16 16 17 18 10 12 16 16 20
29 31 31 29 27 27 26 23 22 19 17 18 15 13 13 11 11 12 9 8 12 16 16 14 16 17 20 20 16 10 6 5 9 16 16 16 15 8 10 11 14 17 16
31 32 31 29 28 27 26 26 24 21 19 18 16 16 18 15 12 12 13 13 14 16 15 14 16 18 16 5 2 2 8 10 9 7 7 9 10 12 13 13 12 11 5
32 32 31 29 29 29 26 24 25 23 22 18 15 16 19 16 13 12 11 12 11 12 13 14 13 10 5 2 5 7 6 7 6 10 13 14 13 15 15 16 14 13 13
31 30 30 29 29 29 27 27 24 22 18 15 14 13 13 11 10 8 10 15 14 13 11 10 7 2 0 4 6 7 8 8 9 10 11 12 13 13 13 13 15 16 18
25 28 31 31 29 30 29 30 26 24 17 15 15 14 12 11 13 12 12 14 14 11 11 6 2 3 1 4 6 9 9 10 6 7 11 10 9 8 11 10 12 8 7
24 28 29 31 31 30 32 32 31 26 18 15 15 13 11 11 12 14 12 11 7 10 7 5 6 5 5 6 7 9 12 13 14 16 14 13 10 12 10 9 11 10 12
21 24 26 29 32 34 35 28 28 21 16 13 13 13 11 14 14 13 11 9 8 7 7 7 8 10 10 9 9 11 13 16 17 16 17 17 14 11 7 9 10 11 14
16 20 25 29 31 28 25 24 25 18 14 14 16 17 14 14 13 12 11 8 5 7 6 6 3 10 14 12 12 13 14 16 14 12 14 13 13 13 13 12 10 11 12
18 23 27 28 26 21 24 22 18 19 20 18 19 17 18 14 11 9 8 7 6 5 6 6 7 11 11 13 11 10 11 13 12 10 14 13 13 13 14 16 16 16 15
18 23 21 16 19 22 26 23 23 21 21 20 19 17 15 14 11 10 9 6 3 1 1 3 7 8 7 9 10 8 8 10 12 12 14 14 14 15 15 15 18 20 18
15 19 16 17 23 24 24 24 26 24 26 21 23 18 14 12 11 9 7 3 4 2 4 4 6 6 11 12 12 8 8 9 11 11 13 15 15 15 15 15 18 19 16
11 14 16 22 23 26 28 24 22 19 17 17 18 16 15 9 10 7 5 6 1 5 9 9 6 6 11 16 14 10 10 11 11 12 15 17 15 15 18 22 21 18 16
11 16 15 16 21 23 22 22 18 15 14 15 11 10 12 12 9 10 9 4 1 7 5 3 1 4 9 12 12 12 14 15 16 15 13 11 18 23 22 21 19 17 18
11 14 16 24 26 25 27 28 22 22 21 19 17 15 14 13 11 9 5 3 5 3 2 1 4 5 7 6 5 8 12 13 10 8 15 19 20 20 21 21 19 17 18
12 13 17 20 23 27 28 27 26 26 27 23 20 17 14 11 6 5 6 6 6 4 1 0 1 4 3 3 5 8 6 5 12 16 17 19 21 21 22 20 18 16 15
12 13 18 20 23 25 29 23 23 24 25 23 21 19 16 9 7 6 7 6 5 3 2 0 4 0 3 5 5 4 8 13 16 17 19 21 22 22 20 19 17 16 15
11 13 23 22 25 28 23 23 24 23 23 21 19 16 11 12 13 10 8 6 4 3 2 1 2 3 5 4 6 10 14 16 18 20 22 22 22 22 17 15 13 12 13
14 18 25 27 32 33 27 23 25 23 23 21 15 13 13 15 11 10 8 5 4 3 1 1 2 3 3 7 11 14 18 20 22 22 22 22 22 19 14 14 15 13 12
17 21 24 26 31 28 25 24 23 24 24 20 19 17 17 15 12 10 7 6 4 2 3 3 3 3 6 10 13 18 21 22 22 21 21 20 20 17 14 14 14 12 13
21 26 28 32 26 23 24 25 25 27 26 23 20 20 17 15 11 8 7 6 4 4 5 4 5 7 10 13 18 20 20 20 20 19 18 18 17 14 13 12 12 13 15
24 30 31 26 25 25 27 26 27 30 27 25 24 19 16 13 9 8 7 5 5 5 5 5 7 10 13 16 19 21 20 20 19 18 17 14 12 11 10 10 11 14 8
26 30 26 24 26 28 30 30 32 31 29 26 21 18 14 11 9 8 6 5 5 5 7 8 10 13 14 15 19 20 21 20 18 17 15 10 11 12 12 12 9 6 10

GFSGL_925_spd_288.txt.gz
Wind_Speed
20 23 24 23 23 23 26 27 26 24 24 23 22 20 17 11 11 11 9 8 8 7 8 10 11 9 9 10 11 13 14 12 8 17 17 18 15 15 17 17 17 15 15
19 24 25 23 25 25 25 28 27 26 27 27 24 23 17 12 11 11 11 10 11 10 11 10 11 11 12 13 14 16 17 15 14 13 18 17 16 18 19 19 14 14 16
20 22 23 22 26 27 27 28 26 27 30 29 27 24 18 14 12 11 12 11 11 11 10 12 12 15 15 16 17 18 17 16 10 10 11 15 17 21 21 14 12 15 17
21 25 26 26 26 27 28 29 26 27 30 30 27 23 18 15 12 11 12 12 13 13 13 14 15 14 16 18 19 19 14 7 3 5 11 12 18 18 11 10 13 17 18
22 25 29 29 28 26 27 28 26 26 26 27 26 22 18 15 11 11 13 12 13 14 15 16 13 14 16 14 10 6 4 6 9 10 10 9 11 11 10 11 14 15 16
25 29 28 28 28 28 27 29 26 24 26 26 26 22 21 17 10 11 13 16 15 16 15 10 11 13 8 3 3 4 7 7 7 6 7 8 11 15 15 14 13 11 5
25 27 26 26 28 29 28 30 29 30 27 24 25 23 20 17 11 14 13 13 15 14 11 11 12 7 2 1 3 5 5 6 7 8 11 13 14 16 16 16 12 12 11
23 23 23 26 28 29 30 32 30 30 25 23 26 22 18 18 13 13 11 12 14 12 11 11 8 4 3 1 3 5 6 8 8 8 10 14 16 17 16 17 17 15 17
17 19 21 25 25 27 31 34 32 27 25 26 23 19 18 13 10 11 11 11 12 11 10 10 6 6 6 3 3 6 9 10 9 10 14 14 14 13 13 15 12 9 8
14 17 20 24 25 28 30 33 32 27 27 26 23 19 17 11 8 8 9 10 11 10 9 8 7 8 9 6 6 7 10 13 16 19 17 16 15 14 13 11 12 11 10
14 13 17 21 25 28 28 28 29 25 22 25 16 14 11 8 9 8 8 11 10 9 7 7 7 11 12 9 9 9 10 14 18 16 14 14 12 11 9 8 9 11 11
16 14 17 19 23 25 26 24 26 29 30 23 18 14 12 9 9 10 9 9 9 7 6 5 8 9 10 11 12 10 10 12 14 15 13 15 14 14 12 11 11 14 13
18 16 15 19 23 24 24 24 26 28 25 21 17 15 12 9 11 7 8 7 6 5 4 5 6 7 9 11 9 8 9 9 12 14 14 16 14 16 15 15 15 15 18
19 16 16 16 18 21 23 23 19 21 19 21 15 15 8 10 10 10 9 8 6 4 2 3 6 8 8 7 7 8 8 8 11 13 14 16 16 17 15 15 16 20 21
16 17 15 16 14 18 18 19 24 26 27 25 19 13 19 14 12 10 7 7 5 5 3 5 7 8 8 9 11 10 10 9 11 13 14 16 16 13 13 14 17 18 13
16 17 13 12 14 16 21 18 19 23 20 18 15 16 14 11 8 10 8 8 7 4 5 7 8 7 8 10 12 13 13 12 12 14 16 16 12 13 18 19 16 14 15
16 17 13 10 14 17 20 20 22 21 20 19 14 12 10 12 12 10 11 8 5 4 6 3 3 5 8 10 12 10 11 13 15 15 12 11 16 17 17 17 16 14 14
17 16 12 13 16 22 21 19 21 22 20 12 11 13 16 15 12 11 8 6 5 6 5 3 3 5 7 7 6 7 11 13 11 11 16 17 16 15 16 16 15 14 13
19 18 14 12 15 19 20 22 27 25 19 24 22 20 16 14 12 8 8 7 7 6 3 2 3 2 3 5 8 10 10 9 14 17 17 16 16 14 15 14 13 13 12
19 17 13 13 16 19 20 24 26 24 25 27 26 23 18 13 8 6 6 5 4 2 1 3 4 5 6 8 8 8 11 15 17 18 18 18 16 14 14 12 10 9 9
19 14 11 13 16 20 27 25 21 23 26 25 22 18 14 10 6 9 8 5 1 2 3 4 6 7 8 6 8 11 15 18 19 19 18 16 14 13 12 10 10 9 8
16 12 14 17 19 23 28 30 26 23 24 23 19 15 11 9 12 9 6 2 0 2 3 5 6 6 6 8 12 15 18 19 19 18 17 15 14 13 11 9 9 10 9
16 14 14 19 21 22 20 23 23 23 24 21 18 16 15 15 11 8 5 2 1 2 3 3 4 5 8 11 13 17 18 18 19 18 17 15 13 11 9 8 8 10 9
17 16 18 18 22 20 20 19 21 23 23 21 20 20 18 13 10 8 5 3 1 1 1 3 6 9 12 14 15 16 16 16 17 16 15 14 11 9 8 7 8 9 11
18 18 22 30 31 24 20 18 22 25 25 24 22 20 16 12 10 7 5 3 2 1 3 6 9 11 13 13 14 15 15 15 13 15 14 10 9 9 7 8 7 7 8
27 23 31 32 28 24 20 22 25 28 27 24 22 18 15 11 8 6 5 2 1 4 6 8 11 12 12 12 14 14 14 13 15 12 10 7 8 9 7 6 5 4 6

GFSGL_925_spd_291.txt.gz
Wind_Speed
11 12 15 18 22 23 22 22 23 23 23 21 20 17 16 15 15 14 12 9 10 9 7 5 8 8 8 9 11 13 14 14 16 19 15 12 14 12 14 17 17 15 12
9 12 16 18 20 23 23 20 22 24 24 23 22 20 17 16 14 17 15 12 13 12 10 9 9 8 10 11 12 14 15 15 16 19 16 11 12 15 16 16 13 9 10
8 9 14 19 21 22 21 18 19 23 25 24 22 21 20 20 19 18 16 15 14 13 11 10 9 9 12 12 13 15 15 14 11 10 12 12 14 15 15 10 9 10 12
9 11 13 18 22 22 22 22 20 22 24 25 26 24 21 24 21 21 16 16 14 13 12 12 10 11 11 12 14 11 8 7 5 9 13 14 12 12 10 10 14 14 15
10 12 13 17 21 21 21 23 23 25 24 21 25 21 21 23 22 20 21 17 14 13 12 11 11 11 11 11 7 4 3 7 9 10 12 12 13 14 12 12 13 14 15
9 13 11 15 19 22 21 22 24 25 22 23 23 20 22 21 19 21 24 20 15 12 12 10 8 10 6 5 3 3 3 4 5 9 11 12 12 13 11 13 14 13 8
9 10 11 12 18 21 23 26 27 27 25 19 17 22 23 21 20 25 24 20 15 13 12 10 9 8 7 6 5 3 2 3 4 6 10 11 13 14 13 13 12 10 9
9 10 9 13 16 18 22 26 28 26 25 25 23 22 20 19 21 22 27 23 17 15 14 12 10 8 10 8 6 3 4 4 3 6 10 13 13 12 11 11 13 12 15
11 8 9 12 13 14 20 25 27 28 30 29 26 22 23 24 20 22 28 21 17 17 13 13 11 10 10 9 4 6 6 5 6 10 13 11 12 13 12 12 14 12 15
13 11 8 8 11 14 19 22 26 27 28 30 31 29 25 22 19 17 20 17 18 14 12 13 11 9 11 10 7 7 8 7 9 13 11 9 9 9 9 8 11 10 13
12 11 9 9 11 13 16 20 23 26 30 30 25 24 21 18 12 14 17 20 17 12 10 8 8 8 10 10 11 9 8 8 9 10 11 10 9 9 8 8 9 10 11
12 12 12 12 11 10 13 18 23 26 27 28 24 21 20 15 18 17 19 20 15 9 7 7 5 6 6 10 12 13 11 9 7 9 9 11 10 9 10 12 12 12 11
11 13 11 12 12 11 14 18 20 22 19 19 21 19 19 18 16 18 21 16 13 7 6 6 6 5 6 10 11 12 11 9 8 10 10 11 11 11 13 14 13 13 14
10 11 12 12 14 14 14 16 18 18 18 20 20 19 19 17 17 14 15 14 10 7 6 5 4 5 7 9 8 8 9 9 9 10 11 12 13 15 16 13 14 17 19
11 11 11 11 12 12 15 14 18 21 27 25 23 23 20 17 18 14 15 12 9 9 6 3 4 6 7 6 7 8 10 10 10 10 12 15 17 18 16 15 18 20 19
13 13 11 10 12 10 13 13 14 21 25 24 22 22 21 18 13 11 14 11 11 9 4 3 5 5 5 6 8 11 11 9 9 10 13 15 15 14 16 18 18 17 18
14 15 12 9 10 9 12 14 14 16 21 23 19 17 16 14 11 15 13 13 10 5 3 3 5 4 5 7 9 8 7 7 8 11 11 11 14 16 16 17 18 17 17
18 20 15 10 10 10 10 16 17 22 20 22 19 16 12 10 15 14 14 9 5 3 3 4 5 4 5 7 7 8 9 10 9 10 12 14 14 15 16 17 16 16 15
18 17 12 10 10 11 10 13 17 20 20 17 11 13 15 16 15 13 9 5 3 3 2 4 3 4 5 6 7 8 8 9 11 13 14 15 15 16 16 15 15 12 12
18 20 15 9 9 9 10 13 16 21 23 19 14 18 19 16 11 8 4 2 2 1 2 3 3 4 6 7 8 9 10 12 14 15 16 16 16 15 15 14 13 11 11
16 14 12 8 7 6 9 15 21 25 24 17 13 15 16 11 7 6 5 4 2 2 2 3 5 5 7 7 8 10 12 14 15 16 16 16 15 15 13 13 11 10 10
14 12 9 8 5 6 11 20 24 21 12 15 12 16 14 7 8 7 6 4 1 2 3 4 6 6 6 7 9 12 13 15 15 16 16 15 14 13 12 11 9 9 10
14 12 10 8 7 12 18 21 20 17 11 13 12 12 10 9 8 7 5 3 2 3 4 4 4 6 7 9 10 11 13 15 15 15 15 13 14 12 9 9 8 8 9
14 15 12 10 17 21 23 20 18 12 13 12 12 11 10 10 9 7 5 4 4 4 3 3 5 7 9 10 10 11 13 13 15 13 14 13 11 9 8 7 7 8 8
10 10 12 18 22 27 25 24 16 11 13 13 13 13 12 10 8 6 5 4 4 2 2 4 6 8 9 11 11 12 14 16 15 14 12 9 8 9 7 6 5 5 6
9 12 15 20 23 29 26 18 13 14 15 15 14 12 10 9 6 5 5 3 1 1 3 5 6 9 11 11 11 14 13 12 13 11 6 5 7 6 6 4 3 2 3